Location: Brighton Point
(40.6144°N, 111.7933°W)
Time: 08:12:45
(UTC+00:00)

Hubble Space Telescope - Visible Passes

Search period start: 06 March 2021 00:00
Search period end: 16 March 2021 00:00
Orbit: 535 x 539 km, 28.5° (Epoch: 05 March)

Date Brightness Start Highest point End Pass type
(mag) Time Alt. Az. Time Alt. Az. Time Alt. Az.
06 Mar 3.1 02:44:52 10° S 02:46:08 11° SSE 02:46:39 11° SSE visible
07 Mar 3.0 02:33:22 10° SSW 02:35:07 12° S 02:36:32 11° SSE visible
08 Mar 3.0 02:22:05 10° SSW 02:24:08 13° S 02:26:11 10° SE visible
09 Mar 3.0 02:10:55 10° SSW 02:13:08 14° S 02:15:22 10° SE visible
09 Mar 3.6 03:51:30 10° SW 03:51:31 10° SW 03:51:31 10° SW visible
10 Mar 3.0 01:59:49 10° SSW 02:02:09 15° S 02:04:29 10° SE visible
10 Mar 3.4 03:40:47 10° SW 03:41:20 11° SSW 03:41:20 11° SSW visible
11 Mar 3.3 03:30:15 10° SSW 03:31:09 11° SSW 03:31:09 11° SSW visible
